Wind_Speed
25 23 22 21 19 18 16 13 11 10 11 12 10 10 12 14 16 19 24 25 27 27 28 30 29 29 11 5 15 14 17 19 20 20 17 16 13 14 17 19 17 21 17 18 19
32 31 29 27 26 23 22 22 19 14 14 13 13 10 9 11 13 14 16 21 22 24 24 26 29 29 27 17 11 18 13 21 20 13 9 8 11 9 7 8 11 18 17 14 15
39 37 36 33 31 31 28 25 25 22 19 17 16 15 12 11 12 11 11 14 18 20 22 22 24 28 30 25 11 12 14 12 11 10 3 4 7 7 5 7 7 3 2 2 3
39 39 41 42 39 37 34 31 29 27 24 23 21 19 18 15 15 12 10 10 13 16 18 19 21 23 26 27 20 6 10 12 8 7 3 3 3 4 4 7 8 6 8 7 6
42 41 40 41 41 42 40 38 36 33 32 30 27 24 22 22 20 15 13 9 9 11 15 17 18 21 24 27 27 18 8 6 7 4 2 6 3 2 2 2 3 6 8 8 9
51 49 46 45 43 42 41 43 41 40 38 36 34 32 28 26 23 20 17 14 10 8 12 14 16 18 21 25 25 24 18 15 6 2 7 9 9 6 6 7 10 5 4 4 2
58 57 55 52 50 46 43 42 43 44 45 42 39 39 37 29 30 26 20 18 14 11 9 11 13 13 15 17 21 21 20 20 15 10 7 3 5 7 4 2 8 11 10 9 10
62 63 62 61 57 53 51 49 46 46 45 46 45 43 44 40 37 30 27 22 21 16 12 10 11 12 10 12 15 18 16 20 19 15 13 12 11 12 11 12 14 17 21 19 16
68 67 66 67 67 63 57 57 55 53 51 49 48 47 44 47 42 39 33 30 24 22 19 13 10 14 8 7 9 11 12 14 16 15 16 12 14 15 17 18 18 17 14 13 13
73 73 74 73 73 69 67 65 62 61 60 57 55 54 49 46 43 46 41 36 30 25 24 21 17 15 15 8 3 4 6 6 7 7 9 9 9 9 10 12 10 10 10 11 12
72 75 77 78 79 78 75 72 72 69 67 66 61 58 58 52 49 48 47 42 40 31 30 28 26 21 17 13 7 3 1 2 3 4 3 3 5 6 4 6 6 9 11 11 13
55 62 68 76 81 81 80 80 79 75 76 75 70 65 61 56 56 53 49 45 43 41 36 34 37 25 19 21 15 11 8 6 5 3 3 1 2 2 2 3 3 4 5 6 7
55 57 61 60 66 77 82 83 83 82 79 87 76 75 73 59 64 59 53 50 45 45 42 44 46 32 26 23 25 20 16 13 9 10 6 4 2 2 4 4 4 3 1 2 3
58 58 61 60 58 61 69 78 82 83 84 93 84 80 79 68 69 68 59 56 52 50 46 47 48 36 33 30 30 30 24 18 18 14 10 10 6 4 5 5 7 7 10 10 12
61 61 62 63 63 56 56 59 73 76 82 94 92 85 82 76 80 73 69 62 58 57 52 47 50 42 38 39 39 39 31 22 21 21 18 15 11 8 8 10 10 11 10 15 15
58 59 65 67 67 64 62 57 50 66 70 87 93 92 88 85 85 84 78 71 68 63 57 56 58 47 44 44 42 42 35 27 24 26 27 21 19 16 11 12 13 14 14 15 17
61 59 61 66 68 68 67 67 54 46 58 78 83 91 94 90 90 88 85 82 75 69 63 61 61 55 49 47 46 41 33 32 30 25 34 26 25 23 19 18 18 19 18 16 18
64 64 63 61 65 69 71 70 64 63 54 67 76 82 93 93 94 93 88 87 83 76 74 69 65 61 53 49 50 49 42 36 36 36 38 30 32 28 26 28 29 28 27 25 26
64 65 68 64 67 70 67 68 66 66 65 61 69 78 83 94 97 97 93 89 86 83 79 75 71 69 64 61 58 51 47 46 43 42 41 36 36 31 32 34 34 33 34 32 33
68 69 69 69 67 69 71 66 63 71 70 61 58 72 80 86 96 100 97 92 90 87 85 82 79 77 74 70 63 56 55 54 46 43 41 40 38 41 35 39 37 39 37 37 39
68 74 71 69 70 70 66 65 66 72 71 63 53 62 78 85 90 96 97 96 93 90 88 85 83 83 82 73 68 64 61 57 52 49 43 42 39 42 44 43 40 42 42 41 42
74 74 73 72 71 69 66 68 68 68 65 60 55 50 72 84 85 91 95 98 97 97 93 89 87 87 81 78 77 74 67 64 62 53 49 46 43 48 46 47 46 44 44 45 46
78 79 74 73 71 70 72 65 67 64 65 60 56 50 66 81 85 86 92 99 104 102 98 93 88 85 87 85 77 71 66 65 65 61 54 50 46 50 48 46 46 47 49 47 46
84 84 79 79 74 76 69 68 70 68 66 66 62 58 53 71 81 84 89 100 105 104 96 96 90 86 84 75 74 72 69 67 68 65 57 53 54 56 55 54 50 51 50 48 50
87 84 87 84 82 75 75 65 72 70 69 69 66 63 58 48 72 77 85 95 103 102 99 98 92 87 82 84 82 77 75 74 72 67 68 61 60 59 58 56 53 52 54 51 54
97 96 95 94 92 87 80 76 73 72 72 70 68 70 61 44 54 67 82 92 101 103 101 98 89 88 84 86 86 83 78 78 76 74 70 66 63 63 61 58 57 57 57 56 59
95 95 95 96 96 94 90 85 79 78 72 75 76 73 65 53 51 65 79 85 94 99 100 96 91 92 87 86 86 89 81 79 77 77 73 68 66 68 65 62 63 64 62 63 66
Wind_Direction
253 256 255 258 261 270 277 274 278 293 308 321 339 359 4 13 24 33 29 35 40 43 42 36 33 32 22 241 235 230 216 211 218 226 227 242 255 264 263 264 265 260 268 271 268
249 252 253 251 255 258 264 272 274 273 283 296 308 325 337 350 2 20 33 27 31 36 41 38 32 32 31 25 233 217 219 222 222 217 223 257 252 266 280 276 262 258 252 270 269
256 255 254 252 251 253 254 257 267 267 269 274 286 299 307 315 330 349 18 26 25 26 31 37 37 35 34 35 33 203 200 209 204 197 167 231 193 154 162 185 189 156 137 241 243
259 259 258 256 254 252 252 253 253 262 265 269 272 281 287 293 303 318 333 9 17 20 22 26 35 38 38 39 50 105 185 177 141 112 114 162 169 129 72 96 116 58 10 340 315
261 262 260 259 259 257 254 253 254 255 262 265 266 268 273 279 284 292 303 321 348 9 12 15 21 32 39 36 35 62 97 97 104 120 246 241 230 179 164 270 238 278 285 274 274
260 258 258 259 259 258 256 253 252 257 255 258 264 265 264 270 271 275 285 295 311 340 357 5 7 23 36 32 29 34 47 57 73 71 241 227 229 236 261 267 278 290 43 23 319
260 260 260 257 254 254 255 254 256 255 257 255 254 261 264 263 262 267 271 279 285 301 327 352 347 10 31 32 31 25 41 52 53 51 49 9 257 227 213 154 125 98 91 94 96
261 261 259 257 255 252 250 249 251 254 255 254 256 256 260 262 264 262 266 264 273 276 286 315 332 333 8 33 35 25 31 53 54 56 59 66 84 102 110 115 109 107 103 96 88
261 260 259 258 259 255 250 249 248 248 250 253 255 253 254 256 259 260 257 257 256 264 273 273 299 305 326 7 28 31 26 44 61 65 72 76 84 93 106 111 107 99 89 85 87
259 258 258 257 256 256 255 252 248 245 246 246 250 254 252 252 252 255 255 257 254 255 262 266 267 278 286 300 357 12 16 51 63 79 96 91 91 100 109 111 99 84 91 87 79
259 257 256 256 256 256 253 251 249 247 245 244 244 246 249 250 250 251 252 251 256 253 255 261 263 253 270 273 262 250 283 259 147 81 48 86 105 93 112 123 109 98 92 78 75
267 260 258 255 254 253 252 251 249 246 246 243 242 243 242 246 248 247 249 249 251 250 247 257 259 246 243 265 258 254 237 255 259 222 227 157 100 58 171 145 130 129 99 82 53
277 274 263 261 257 254 253 249 248 247 244 247 241 239 241 237 244 242 241 244 245 247 245 247 252 251 243 248 261 254 252 233 237 242 236 256 265 293 242 207 221 204 239 243 301
277 273 275 275 269 259 253 252 248 243 242 246 242 239 239 235 241 239 238 239 241 245 245 245 250 250 247 244 247 257 246 244 241 244 246 233 229 246 280 251 249 254 262 262 271
284 283 280 278 276 271 270 251 249 247 243 242 244 240 238 233 238 239 237 237 240 241 241 243 247 244 243 243 239 243 248 245 248 249 246 246 242 223 226 256 261 265 258 269 286
287 282 280 279 278 279 276 270 252 245 243 241 240 239 236 235 233 237 238 236 238 239 238 241 247 244 240 242 243 244 245 246 249 257 251 243 250 248 236 249 254 256 254 266 280
283 281 275 276 276 275 274 277 269 259 249 242 238 237 236 234 235 234 236 237 236 238 242 245 249 249 244 245 246 247 244 241 241 248 260 251 253 254 251 256 258 260 255 259 268
283 280 276 272 270 270 271 274 276 272 262 244 239 235 234 231 232 234 234 235 236 235 237 239 241 246 247 244 243 243 242 238 235 236 244 251 257 253 258 256 256 259 264 267 271
282 275 278 273 271 269 269 270 269 270 268 262 236 235 233 231 229 231 232 233 234 235 235 238 241 243 242 238 237 239 241 239 237 236 240 245 255 260 257 260 263 264 268 270 275
277 276 274 272 272 271 268 264 264 264 266 265 245 230 234 231 228 229 229 230 232 235 236 235 235 238 240 240 240 240 239 240 238 240 240 241 245 260 257 261 265 269 273 276 276
272 274 271 273 267 269 268 260 260 261 265 266 255 234 232 231 229 227 228 229 230 231 232 233 233 239 240 240 242 240 242 245 242 238 240 242 242 246 256 258 259 267 272 275 279
274 270 269 269 265 263 263 259 257 261 261 260 255 245 227 229 226 224 224 225 227 229 230 231 231 236 240 241 241 242 240 243 247 242 238 237 239 243 244 250 255 260 265 270 270
273 270 269 269 260 256 257 255 252 253 254 252 253 247 229 226 228 223 221 223 224 225 226 228 230 231 236 239 240 246 249 249 250 248 248 245 242 245 247 249 253 257 259 263 269
276 269 268 268 261 254 251 252 247 247 251 250 251 252 244 224 229 225 220 222 224 224 224 227 227 229 235 239 240 243 246 247 248 248 247 247 244 247 249 250 253 259 263 265 268
276 270 270 266 259 251 246 246 247 241 243 247 248 249 247 232 227 230 221 222 223 222 222 224 224 226 228 232 234 234 237 240 244 244 245 243 245 247 250 254 255 257 262 264 266
273 267 265 262 259 248 243 242 245 241 239 241 242 246 245 238 225 224 225 220 223 222 220 223 221 224 226 230 233 234 235 239 241 243 245 247 248 249 251 255 258 259 261 265 267
258 256 251 253 248 244 240 238 235 237 235 237 239 242 242 237 222 220 226 222 222 221 220 221 220 222 222 228 231 234 235 238 241 244 247 249 251 252 255 258 260 262 265 266 267
Height
10986 10988 10988 10988 10988 10989 10990 10990 10990 10990 10990 10989 10988 10988 10987 10985 10983 10982 10980 10978 10974 10971 10968 10964 10963 10960 10957 10955 10956 10959 10961 10962 10964 10965 10966 10967 10968 10968 10968 10970 10970 10972 10974 10974 10974
10981 10982 10984 10985 10985 10986 10986 10987 10988 10988 10988 10988 10987 10988 10987 10987 10985 10984 10983 10981 10978 10975 10972 10968 10964 10961 10959 10955 10954 10957 10960 10962 10964 10964 10964 10965 10967 10968 10968 10969 10970 10970 10972 10972 10971
10975 10976 10978 10980 10981 10982 10982 10983 10984 10986 10986 10987 10986 10986 10987 10986 10986 10984 10984 10983 10981 10978 10975 10972 10969 10965 10961 10956 10953 10955 10958 10960 10963 10963 10963 10966 10967 10968 10969 10969 10969 10969 10970 10970 10970
10969 10970 10971 10973 10975 10977 10978 10979 10980 10980 10982 10983 10985 10985 10984 10985 10984 10984 10984 10984 10982 10981 10978 10975 10971 10969 10967 10962 10958 10956 10957 10959 10961 10960 10963 10966 10966 10966 10968 10968 10968 10968 10968 10968 10968
10962 10963 10964 10965 10967 10970 10973 10974 10975 10976 10977 10978 10980 10982 10982 10981 10981 10982 10983 10984 10983 10981 10979 10976 10973 10970 10968 10964 10962 10959 10958 10958 10959 10959 10962 10965 10966 10966 10967 10968 10969 10968 10968 10967 10967
10953 10955 10956 10958 10960 10962 10965 10967 10968 10969 10971 10972 10973 10975 10978 10977 10978 10979 10981 10981 10983 10982 10980 10977 10973 10972 10969 10965 10964 10962 10958 10957 10958 10958 10962 10963 10965 10966 10967 10967 10967 10966 10964 10965 10966
10940 10942 10945 10948 10951 10954 10957 10959 10961 10962 10963 10965 10967 10968 10970 10974 10971 10974 10977 10979 10980 10980 10980 10979 10975 10974 10972 10971 10968 10965 10963 10959 10958 10959 10961 10961 10962 10963 10963 10963 10965 10964 10965 10967 10967
10928 10930 10932 10934 10937 10942 10947 10949 10951 10953 10954 10956 10960 10962 10961 10967 10967 10970 10972 10975 10976 10977 10978 10978 10976 10974 10974 10973 10970 10969 10966 10961 10960 10961 10960 10961 10962 10962 10963 10963 10964 10966 10967 10968 10969
10912 10914 10915 10918 10921 10928 10935 10937 10940 10943 10944 10947 10950 10952 10953 10956 10960 10963 10966 10967 10971 10973 10974 10976 10977 10973 10974 10973 10972 10971 10969 10966 10965 10965 10964 10966 10966 10966 10966 10967 10967 10968 10969 10971 10971
10896 10897 10899 10901 10902 10909 10918 10922 10926 10930 10931 10935 10938 10942 10945 10947 10952 10953 10958 10961 10965 10969 10970 10972 10975 10973 10972 10973 10972 10972 10971 10971 10971 10972 10972 10972 10970 10969 10970 10969 10970 10971 10971 10971 10971
10877 10878 10880 10884 10884 10889 10899 10903 10906 10914 10917 10920 10925 10931 10932 10938 10941 10944 10948 10954 10957 10963 10964 10965 10968 10971 10970 10971 10972 10972 10971 10972 10972 10972 10975 10973 10972 10970 10971 10971 10971 10971 10972 10973 10972
10859 10857 10858 10863 10863 10868 10874 10882 10886 10895 10896 10900 10910 10915 10918 10927 10930 10932 10938 10944 10949 10953 10957 10959 10956 10965 10969 10965 10968 10969 10970 10970 10970 10970 10972 10972 10972 10971 10973 10972 10971 10972 10973 10974 10974
10842 10841 10840 10842 10842 10846 10852 10858 10863 10874 10881 10865 10891 10897 10901 10918 10911 10919 10925 10932 10939 10942 10948 10949 10947 10958 10965 10965 10961 10964 10965 10968 10968 10968 10968 10968 10969 10970 10971 10972 10972 10973 10973 10973 10973
10825 10824 10823 10823 10824 10827 10831 10833 10840 10851 10857 10841 10867 10878 10885 10903 10901 10899 10911 10918 10926 10932 10937 10938 10938 10949 10954 10958 10959 10956 10959 10963 10965 10965 10966 10967 10967 10966 10968 10970 10971 10972 10972 10973 10974
10808 10807 10804 10803 10805 10810 10809 10812 10818 10828 10834 10826 10839 10859 10869 10881 10880 10890 10894 10903 10914 10918 10925 10930 10926 10937 10943 10945 10948 10948 10953 10957 10958 10960 10962 10963 10962 10964 10965 10965 10966 10968 10969 10968 10969
10792 10792 10787 10785 10785 10790 10789 10792 10799 10805 10806 10804 10814 10829 10845 10856 10862 10868 10880 10889 10895 10904 10913 10916 10912 10925 10932 10933 10938 10941 10948 10952 10954 10954 10954 10956 10958 10960 10960 10961 10963 10964 10965 10966 10965
10777 10775 10773 10768 10768 10769 10769 10771 10780 10787 10778 10781 10793 10807 10817 10834 10841 10850 10862 10872 10882 10893 10904 10905 10905 10913 10921 10924 10928 10933 10939 10945 10949 10950 10943 10950 10951 10955 10954 10956 10957 10959 10960 10961 10960
10760 10757 10755 10752 10751 10749 10750 10753 10761 10763 10758 10761 10776 10782 10790 10807 10817 10827 10841 10852 10863 10876 10882 10889 10893 10900 10911 10915 10917 10920 10927 10934 10939 10941 10939 10945 10941 10948 10950 10949 10950 10951 10953 10954 10954
10740 10736 10733 10736 10732 10730 10732 10736 10740 10740 10739 10740 10751 10760 10770 10779 10793 10803 10820 10833 10845 10857 10866 10876 10883 10884 10891 10895 10899 10910 10916 10921 10926 10931 10935 10940 10937 10940 10941 10941 10941 10944 10944 10946 10946
10719 10713 10713 10712 10711 10710 10714 10720 10720 10716 10715 10724 10730 10741 10747 10756 10767 10779 10798 10813 10825 10836 10845 10858 10863 10865 10872 10877 10886 10898 10902 10905 10918 10923 10928 10932 10935 10929 10934 10933 10934 10934 10935 10936 10937
10698 10688 10688 10689 10688 10690 10696 10698 10696 10695 10697 10707 10712 10722 10725 10732 10743 10761 10781 10794 10805 10816 10824 10837 10848 10847 10851 10870 10880 10883 10890 10897 10904 10911 10919 10922 10927 10925 10923 10925 10928 10926 10926 10927 10926
10672 10667 10661 10662 10666 10669 10674 10674 10675 10676 10680 10687 10692 10698 10702 10705 10721 10737 10754 10768 10779 10787 10803 10818 10827 10830 10847 10853 10858 10864 10876 10882 10887 10901 10905 10910 10916 10914 10916 10918 10919 10919 10920 10919 10919
10640 10638 10636 10634 10640 10644 10649 10652 10654 10656 10658 10667 10673 10679 10681 10688 10699 10717 10729 10739 10743 10758 10777 10793 10813 10823 10823 10831 10849 10861 10871 10874 10878 10885 10895 10900 10907 10902 10906 10909 10910 10909 10910 10911 10912
10604 10603 10607 10603 10610 10616 10624 10627 10630 10635 10640 10647 10654 10659 10664 10675 10682 10698 10710 10707 10720 10736 10766 10771 10792 10808 10818 10836 10839 10846 10854 10859 10862 10871 10882 10888 10890 10890 10892 10895 10900 10899 10900 10902 10900
10564 10566 10566 10573 10575 10585 10595 10603 10604 10611 10619 10623 10634 10639 10644 10658 10667 10679 10689 10691 10698 10721 10740 10751 10774 10789 10805 10806 10812 10825 10832 10837 10844 10858 10860 10872 10874 10878 10879 10883 10889 10890 10890 10892 10889
10520 10523 10527 10531 10538 10550 10562 10575 10580 10587 10594 10602 10613 10615 10629 10645 10651 10655 10663 10669 10676 10699 10719 10732 10763 10771 10785 10787 10793 10803 10816 10821 10829 10838 10848 10857 10863 10864 10868 10873 10877 10877 10879 10880 10877
10466 10474 10480 10487 10493 10511 10522 10541 10551 10563 10571 10579 10586 10598 10613 10624 10633 10638 10644 10653 10664 10684 10701 10718 10740 10747 10764 10769 10777 10778 10800 10808 10818 10823 10834 10844 10852 10850 10857 10863 10863 10863 10866 10866 10860